Zurück zum Katalog

CZ-6A DEB

AktivPO
NORAD 61406·DEBRIS·🇨🇳 China

Gestartet Aug 6, 2024 von Taiyuan Satellite Launch Center

Loading…

Nächste Überflüge (nächste 24 Stunden)

TLE

AktuellSource: Space-Track

Epoche: Sep 14, 2026, 00:16 UTC

1 61406U 24140XX  26257.01165421  .00000500  00000-0  29340-3 0  9996
2 61406  88.9930 267.0104 0128223 343.3469  16.3518 14.02798702102845

Verfolge CZ-6A DEB in Echtzeit mit AllMySat

Download on the App Store